User: anonymous   Login
Location: Unspecified
(0.0000°N, 0.0000°E)
Time: 04:06:41
(UTC+00:00)
Language:

OFEQ 11 - Orbit

View from above orbital plane
View from above orbital plane
View from above satellite
View from above satellite

Ground track
Ground track

The orbit data is extracted from the following two-line orbital elements,

1 41759U 16056A   18021.69907502 0.00010500  00000-0  18420-3 0    01
2 41759 141.9422 134.5226 0081112 195.1112 164.8880 15.45857110    09
Epoch (UTC): 21 January 2018 16:46:40
Eccentricity: 0.0081112
inclination: 141.9422°
perigee height: 373 km
apogee height: 484 km
right ascension of ascending node: 134.5226°
argument of perigee: 195.1112°
revolutions per day: 15.45857110
mean anomaly at epoch: 164.8880°
orbit number at epoch: 0

The dashed part of the orbit path shows where the satellite is in the earth's shadow,  

DLR